Regional Weather Roundup
Issued by NWS

Home | Current Version | Previous Version | Graphics & Text | Print | Product List | Glossary On
Versions: 1 2 3 4 5 6 7 8 9 10 11 12 13 14 15 16 17 18 19 20 21 22 23 24 25 26 27 28 29 30 31 32 33 34 35 36 37 38 39 40 41 42 43 44 45 46 47 48 49 50
604
ASUS44 KLIX 270410
RWRLA
LOUISIANA WEATHER ROUNDUP
NATIONAL WEATHER SERVICE NEW ORLEANS LA
1000 PM CST MON JAN 26 2015

NOTE: "FAIR" INDICATES FEW OR NO CLOUDS BELOW 12,000 FEET WITH NO
      SIGNIFICANT WEATHER AND/OR OBSTRUCTIONS TO VISIBILITY.
      SKY/WX - SKY CONDITION AND SIGNIFICANT WEATHER.
      TMP - AIR TEMPERATURE.    DP   - DEWPOINT TEMPERATURE.
      RH  - RELATIVE HUMIDITY.  PRES - PRESSURE.
      HX  - HEAT INDEX.         WCI  - WIND CHILL INDEX.

*  THESE STATIONS ARE NOT NWS OR FAA STATIONS AND ARE NOT UNDER
   NWS QUALITY CONTROL.

LAZ040-048-061>063-065-066-069-270500-
SOUTHEAST LOUISIANA

CITY           SKY/WX    TMP DP  RH WIND       PRES   REMARKS
N.O. AUDUBON     N/A     47   0  14 MISG        N/A
N.O. INTL ARPT PTCLDY    48  36  63 W7        30.10S
N.O. LAKEFRONT CLEAR     55  42  61 W12       30.10S
N.O. DOWNTOWN* FAIR      54  34  47 CALM      30.11R
SLIDELL        CLEAR     44  36  73 CALM      30.08R
BATON ROUGE    CLEAR     47  35  63 SW6       30.09F
BOOTHVILLE     CLEAR     49  41  74 W7        30.11S
BELLE CHASSE   PTCLDY    48  36  63 W5        30.10S
BOGALUSA*        N/A     40  36  84 CALM      30.08S
GALLIANO*      CLEAR     49  44  81 MISG      30.12S
NEW ROADS*     FAIR      45  38  77 CALM      30.10S
GONZALES*      FAIR      45  37  74 CALM      30.10S
HAMMOND*       CLEAR     45  36  70 CALM      30.10S
HOUMA*         CLEAR     46  42  86 W6        30.12S
PORT FOURCHON* CLEAR     54  46  76 W8        30.16S

$$

LAZ041-044-053-054-270500-
SOUTHWEST LOUISIANA

CITY           SKY/WX    TMP DP  RH WIND       PRES   REMARKS
LAKE CHARLES   CLEAR     48  43  82 W3        30.13R
LAFAYETTE      CLEAR     46  42  86 SW7       30.11S
PATTERSON      CLEAR     46  41  81 SW6       30.14R
SALT POINT       N/A     51  48  89 W5        30.13R
NEW IBERIA     CLEAR     47  42  83 SW7       30.13S
CHENAULT AIRPK CLEAR     52  38  58 SW7       30.13R

$$

LAZ027-028-270500-
CENTRAL LOUISIANA

CITY           SKY/WX    TMP DP  RH WIND       PRES   REMARKS
FORT POLK      CLEAR     53  37  55 W6        30.10R
ALEXANDRIA INT CLEAR     45  38  76 CALM      30.08S
ALEXANDRIA     CLEAR     39  37  92 W3        30.09S

$$

LAZ001-002-270500-
NORTHWEST LOUISIANA

CITY           SKY/WX    TMP DP  RH WIND       PRES   REMARKS
SHREVEPORT     CLEAR     49  37  63 CALM      30.06R
BARKSDALE AFB  CLEAR     44  35  70 S3        30.07R
DTN SHREVEPORT CLEAR     51  34  52 CALM      30.06S

$$

LAZ014-016-270500-
NORTHEAST LOUISIANA

CITY           SKY/WX    TMP DP  RH WIND       PRES   REMARKS
MONROE         CLEAR     47  35  63 SW6       30.07S
TALLULAH       CLEAR     42  35  76 SW3       30.07R

$$




USA.gov is the U.S. government's official web portal to all federal, state and local government web resources and services.